Wind_Speed
36 36 36 36 37 37 37 37 37 37 37 36 36 36 36 37 38 39 39 39 39 40 41 41 42 43 43 44 44 45 45 45 45 45 46 46 46 47 48 49 49 50 51
34 35 35 35 35 35 36 36 36 35 35 35 36 36 36 37 38 39 40 40 40 41 41 42 43 44 44 44 44 44 45 45 45 45 46 46 46 46 47 48 50 51 52
34 34 34 35 35 35 35 35 36 36 36 37 37 37 38 38 39 39 40 41 41 41 42 43 43 43 44 45 45 45 45 44 45 45 45 45 45 46 46 48 49 51 53
32 33 33 34 34 35 35 36 36 37 37 38 39 39 39 39 40 40 41 41 42 42 43 42 42 43 43 43 44 44 43 43 44 44 45 45 46 46 46 47 49 50 51
31 31 32 33 33 34 35 36 36 37 38 38 39 39 39 40 40 40 40 41 42 42 42 42 42 42 42 42 42 42 43 43 43 44 45 45 46 47 47 47 48 49 50
29 29 30 31 32 33 34 34 35 35 35 36 36 37 37 38 38 39 39 40 40 40 40 40 41 41 41 41 41 42 42 43 44 44 45 45 46 47 47 47 47 48 48
28 29 29 30 30 31 32 32 32 33 33 34 35 35 36 36 37 37 38 38 39 39 39 40 39 39 39 40 40 41 42 42 43 44 45 46 46 47 47 48 48 48 48
27 28 28 28 28 28 29 30 30 31 32 33 33 34 36 36 37 37 37 38 39 39 39 39 39 39 39 39 40 40 41 41 42 43 44 45 46 47 47 48 49 50 50
25 25 26 26 26 27 28 29 29 30 31 32 32 33 34 34 34 35 36 37 37 38 38 38 38 38 38 39 39 39 40 40 41 42 43 44 45 46 47 48 49 50 50
23 24 24 25 26 27 27 28 29 30 30 30 31 31 32 32 32 33 34 35 36 36 36 37 37 37 38 39 39 39 40 40 41 41 42 43 44 45 46 48 48 49 49
21 22 23 25 25 26 27 27 28 29 29 30 30 30 30 31 31 32 32 32 33 34 35 35 36 36 37 37 38 38 39 40 40 41 41 42 42 43 44 45 46 47 48
19 21 22 24 24 25 25 26 26 27 28 28 28 28 29 29 30 30 31 31 31 32 33 34 35 36 36 37 37 38 39 39 40 40 41 41 42 42 43 43 44 46 46
19 20 21 22 23 23 24 24 25 26 27 27 27 28 28 29 30 30 30 31 31 32 33 34 35 36 36 37 37 38 38 39 39 40 40 41 41 42 42 42 43 44 45
19 19 20 20 21 22 23 23 24 25 26 26 27 28 28 29 29 30 30 31 32 32 33 34 35 36 36 36 37 37 37 38 39 40 40 41 41 41 42 42 43 43 44
20 20 20 21 21 22 23 24 24 25 25 26 27 27 27 28 28 29 30 31 32 33 33 34 35 35 36 36 37 37 37 38 39 40 40 41 41 41 42 42 42 42 43
20 21 22 22 23 23 24 24 25 26 26 27 27 27 27 27 28 29 29 30 31 33 34 35 35 36 36 37 37 38 38 39 40 41 41 41 42 42 42 42 42 43 44
21 22 23 24 24 25 25 25 26 27 27 27 27 28 28 28 29 30 30 31 32 32 33 34 35 36 36 36 37 38 39 40 41 42 42 42 42 42 42 42 43 44 45
22 23 23 24 24 25 26 27 27 28 28 28 28 29 29 30 30 30 31 32 33 34 34 35 35 36 36 36 37 38 39 41 41 42 42 42 42 43 43 44 45 46 47
23 24 24 25 25 26 26 27 27 28 29 29 30 30 31 31 31 31 32 33 34 35 35 36 36 36 37 37 38 39 40 41 41 41 42 42 43 43 44 45 46 47 47
24 25 25 25 26 26 27 27 28 28 29 30 31 31 32 32 33 33 34 35 35 35 36 36 36 37 38 38 39 40 41 42 42 43 43 44 44 44 45 46 47 47 47
27 28 28 28 28 29 29 30 30 31 31 31 31 32 32 33 34 34 35 36 36 36 36 37 37 38 38 39 40 41 42 43 43 43 43 44 45 45 46 47 47 47 46
31 31 31 31 31 32 32 32 32 33 33 33 33 33 34 34 35 36 37 37 37 37 37 38 38 38 39 39 39 40 41 42 43 43 44 44 44 45 45 46 46 45 45
33 33 33 34 34 34 34 34 34 35 35 35 35 35 35 36 36 37 37 38 37 38 38 39 38 38 38 38 39 40 41 42 43 43 43 43 43 44 44 44 43 43 43
36 36 36 36 36 36 36 37 37 37 37 37 37 37 37 38 38 38 38 38 38 38 38 38 38 39 39 39 40 41 42 43 43 42 42 42 43 43 43 43 42 42 43
39 39 39 39 38 38 38 38 38 38 38 38 38 38 39 39 38 38 38 39 39 39 38 38 38 39 39 40 41 42 42 43 42 41 41 41 42 42 42 42 42 42 42
40 40 40 40 40 39 39 39 39 38 38 38 38 38 38 38 38 38 38 38 38 38 37 38 38 39 40 41 42 42 42 41 41 41 40 41 41 41 41 41 41 40 40
Wind_Direction
243 245 247 249 250 251 253 255 257 258 260 262 263 265 266 267 269 270 270 270 271 273 274 274 275 276 276 277 277 277 277 277 276 275 274 273 272 272 271 270 270 269 268
244 246 248 249 251 253 254 256 257 259 262 264 265 267 268 270 270 271 271 272 273 274 274 274 275 276 277 278 278 277 277 276 276 276 275 273 272 272 272 271 270 269 269
246 248 250 251 253 254 256 258 260 262 264 265 266 268 270 271 271 272 273 274 274 275 275 275 277 278 279 279 279 279 278 276 275 276 277 275 273 272 272 273 273 272 271
249 250 251 253 254 256 258 260 261 263 265 266 268 269 271 271 272 273 274 275 275 276 276 277 278 279 280 279 279 279 278 277 276 277 277 277 276 274 273 273 274 273 272
252 253 254 255 256 258 260 261 263 265 266 268 270 271 271 272 273 274 275 275 276 277 278 279 280 280 280 280 280 279 277 277 277 277 277 277 276 276 275 273 273 273 273
253 254 255 256 257 259 261 262 264 265 267 269 270 271 273 273 273 274 275 276 277 278 279 280 281 281 281 280 280 279 278 277 277 277 277 277 277 276 275 274 273 273 273
253 255 256 257 259 260 262 263 264 266 267 269 271 273 274 275 275 276 276 277 277 278 280 281 282 281 281 281 281 281 281 280 279 278 278 278 277 276 274 273 273 273 273
254 256 257 259 260 262 264 265 266 267 269 271 273 274 275 276 276 277 277 278 278 279 280 281 281 281 282 282 283 283 283 283 282 281 281 279 278 277 276 275 274 274 273
254 256 257 259 262 264 266 268 268 269 271 273 276 277 277 277 278 278 278 278 279 280 281 281 282 283 283 283 283 283 283 283 284 284 284 282 280 279 278 277 276 275 274
258 258 258 261 264 266 268 269 270 271 272 274 276 277 277 277 278 279 280 281 280 280 281 282 283 283 284 284 284 284 285 285 285 285 285 284 283 282 280 278 277 276 275
257 258 259 262 265 267 268 270 271 272 273 275 276 277 277 277 278 280 281 282 282 282 282 283 284 285 286 286 285 286 286 286 286 287 287 286 286 285 284 281 279 277 275
261 262 264 265 266 268 270 271 272 273 275 276 276 277 278 278 279 280 281 282 283 283 283 284 286 287 287 287 287 287 287 287 288 288 288 288 287 286 285 284 282 279 277
264 265 266 266 267 268 270 272 273 274 275 276 277 278 279 279 279 281 282 283 284 284 284 284 286 288 289 289 289 289 288 288 288 289 289 289 288 287 287 286 284 282 280
266 266 266 267 269 270 271 273 274 275 276 277 278 279 280 280 280 281 282 283 285 285 286 287 287 288 289 290 290 290 289 289 289 289 290 290 289 288 288 287 286 284 282
268 268 269 271 273 274 273 274 276 277 278 279 280 281 282 282 282 282 282 283 284 286 287 288 289 289 290 290 290 290 290 290 290 290 291 291 290 290 289 288 287 285 284
271 271 272 273 274 274 275 276 277 279 280 280 280 281 283 284 284 284 284 285 286 287 288 289 290 290 290 290 289 290 290 290 290 290 290 291 291 290 289 287 286 286 285
274 276 276 276 276 275 275 276 278 279 280 280 280 280 282 284 286 285 285 286 287 288 289 289 290 290 290 290 290 291 291 292 292 291 290 290 291 290 289 289 288 287 287
277 278 278 277 277 278 278 278 279 280 280 280 281 282 282 284 286 287 288 288 288 288 289 290 291 291 291 291 291 292 293 294 293 292 292 292 292 291 290 290 290 289 289
280 280 280 279 279 280 281 281 281 281 281 281 282 283 284 284 285 287 289 290 289 289 290 290 291 292 292 292 292 293 294 295 294 294 293 293 293 292 292 292 291 291 289
282 282 282 281 281 281 282 281 282 283 284 284 284 284 285 285 286 288 289 291 291 291 290 291 291 292 292 292 293 293 294 294 294 294 294 294 293 292 292 292 292 292 290
282 281 281 281 281 282 282 282 282 284 284 284 284 284 285 287 288 288 290 291 291 291 290 290 291 292 293 293 294 294 295 295 295 295 295 295 295 294 294 294 293 293 291
282 282 281 281 281 281 282 283 283 283 284 284 284 285 286 287 288 289 290 290 290 290 291 291 292 293 294 295 296 297 297 297 297 297 296 296 296 295 296 296 295 294 292
281 281 281 281 281 281 282 282 282 283 284 284 284 285 286 287 288 289 290 290 290 291 291 291 293 294 295 296 297 298 298 298 298 298 297 297 296 297 297 296 295 295 293
279 280 281 281 281 281 281 281 282 283 283 284 284 284 284 286 288 288 289 289 290 291 291 292 292 294 295 297 298 299 300 300 300 299 298 298 298 299 299 298 297 296 295
279 279 280 280 280 281 281 281 281 282 282 282 283 283 284 285 287 288 288 289 290 292 292 292 292 294 296 297 298 299 300 301 301 300 300 300 300 301 300 300 299 298 298
279 278 278 278 279 279 280 281 281 281 281 282 282 282 284 284 285 287 288 289 290 291 292 292 293 295 297 298 300 300 301 301 301 301 301 302 302 303 303 302 301 301 300
Height
5763 5765 5767 5769 5771 5773 5774 5776 5777 5778 5779 5779 5779 5780 5779 5779 5779 5778 5778 5778 5777 5777 5776 5775 5775 5773 5772 5771 5770 5768 5767 5765 5764 5763 5762 5762 5761 5761 5760 5759 5759 5759 5758
5757 5759 5761 5763 5764 5766 5767 5768 5770 5770 5771 5772 5772 5772 5772 5771 5771 5770 5769 5769 5768 5768 5767 5766 5765 5764 5762 5760 5759 5758 5756 5755 5753 5752 5751 5751 5751 5750 5748 5747 5746 5746 5745
5751 5753 5755 5756 5758 5759 5760 5761 5762 5763 5763 5763 5764 5763 5763 5762 5762 5761 5760 5760 5759 5758 5757 5756 5755 5753 5752 5750 5748 5746 5745 5743 5742 5741 5740 5739 5740 5739 5738 5735 5734 5733 5732
5745 5747 5748 5749 5751 5752 5753 5754 5755 5755 5755 5755 5755 5755 5754 5754 5753 5752 5751 5750 5749 5748 5747 5745 5744 5743 5741 5739 5737 5735 5733 5732 5731 5730 5729 5728 5727 5726 5726 5725 5722 5720 5719
5739 5740 5741 5743 5744 5745 5745 5746 5746 5747 5747 5747 5746 5746 5745 5744 5743 5743 5742 5741 5739 5738 5737 5735 5734 5732 5730 5728 5726 5725 5723 5722 5721 5720 5718 5717 5715 5713 5713 5713 5711 5708 5706
5732 5733 5735 5736 5736 5737 5738 5738 5738 5738 5738 5738 5737 5737 5736 5735 5734 5733 5732 5731 5730 5728 5727 5725 5723 5722 5720 5718 5716 5714 5712 5711 5709 5708 5706 5705 5703 5702 5700 5699 5698 5696 5694
5726 5727 5728 5729 5729 5730 5730 5730 5730 5730 5730 5730 5729 5728 5727 5726 5725 5724 5723 5721 5720 5719 5717 5715 5713 5712 5709 5707 5705 5704 5702 5700 5698 5697 5695 5693 5691 5689 5687 5686 5684 5683 5681
5720 5721 5721 5722 5723 5723 5723 5723 5723 5722 5722 5721 5721 5720 5718 5717 5716 5714 5713 5712 5711 5709 5707 5706 5704 5702 5700 5698 5696 5694 5692 5690 5687 5685 5683 5680 5678 5676 5674 5672 5671 5669 5668
5714 5714 5715 5715 5716 5716 5716 5716 5715 5715 5714 5713 5712 5711 5709 5708 5707 5705 5704 5702 5701 5700 5698 5696 5694 5692 5690 5688 5686 5684 5681 5679 5677 5674 5671 5668 5666 5663 5661 5659 5657 5656 5654
5708 5708 5708 5709 5709 5709 5708 5708 5707 5707 5706 5705 5704 5702 5701 5699 5698 5696 5695 5693 5692 5690 5689 5687 5685 5683 5681 5678 5676 5674 5671 5669 5666 5663 5660 5657 5654 5651 5649 5646 5644 5642 5640
5702 5702 5702 5702 5702 5702 5701 5700 5700 5699 5698 5697 5696 5694 5693 5691 5690 5688 5687 5685 5683 5681 5680 5678 5676 5674 5672 5669 5666 5664 5662 5659 5656 5653 5650 5646 5643 5640 5637 5634 5632 5629 5627
5696 5696 5695 5695 5695 5694 5694 5693 5692 5691 5690 5688 5687 5686 5684 5683 5681 5680 5678 5676 5675 5673 5671 5669 5667 5665 5662 5660 5657 5654 5651 5649 5646 5643 5639 5636 5633 5629 5625 5622 5620 5617 5615
5690 5690 5689 5689 5688 5687 5686 5685 5684 5683 5682 5681 5679 5678 5676 5675 5673 5672 5670 5668 5666 5665 5662 5660 5658 5656 5653 5650 5647 5644 5642 5639 5636 5632 5629 5625 5622 5618 5615 5611 5608 5606 5603
5684 5683 5683 5682 5681 5680 5679 5678 5677 5676 5675 5673 5672 5670 5669 5667 5665 5664 5662 5660 5658 5656 5654 5652 5650 5647 5644 5641 5638 5635 5632 5629 5626 5622 5619 5615 5611 5608 5604 5601 5598 5595 5592
5678 5677 5677 5676 5675 5674 5672 5671 5670 5669 5667 5666 5664 5663 5661 5659 5657 5655 5654 5652 5650 5648 5645 5643 5640 5638 5635 5632 5629 5626 5622 5619 5616 5612 5609 5605 5601 5597 5594 5590 5587 5583 5580
5672 5671 5670 5669 5668 5667 5666 5664 5663 5662 5660 5658 5657 5655 5653 5651 5649 5647 5645 5643 5641 5639 5637 5634 5631 5628 5625 5622 5619 5616 5612 5609 5605 5602 5598 5594 5590 5587 5583 5579 5575 5572 5568
5666 5665 5664 5662 5661 5660 5659 5657 5656 5654 5652 5651 5649 5647 5645 5643 5641 5639 5637 5635 5632 5630 5627 5624 5621 5618 5615 5612 5609 5605 5602 5598 5594 5590 5586 5583 5579 5575 5571 5567 5563 5559 5555
5660 5658 5657 5656 5654 5653 5651 5650 5648 5647 5645 5643 5641 5639 5637 5635 5633 5631 5628 5626 5623 5621 5618 5615 5611 5608 5605 5602 5599 5595 5591 5587 5583 5579 5575 5571 5567 5563 5559 5555 5551 5547 5542
5653 5652 5650 5649 5647 5646 5644 5642 5641 5639 5637 5635 5633 5631 5629 5626 5624 5622 5619 5617 5614 5611 5608 5605 5602 5598 5595 5591 5588 5584 5580 5576 5572 5568 5563 5559 5555 5551 5547 5542 5538 5533 5528
5646 5645 5643 5641 5640 5638 5636 5634 5633 5631 5628 5626 5624 5622 5620 5617 5615 5613 5610 5607 5605 5601 5598 5595 5591 5588 5585 5581 5577 5573 5569 5565 5561 5556 5552 5547 5543 5538 5533 5529 5524 5519 5515
5639 5637 5635 5633 5631 5630 5628 5626 5624 5622 5619 5617 5615 5613 5610 5608 5606 5603 5600 5598 5595 5591 5588 5585 5581 5578 5574 5570 5566 5562 5558 5553 5548 5544 5539 5535 5530 5525 5520 5515 5510 5505 5500
5630 5628 5626 5624 5622 5620 5619 5617 5615 5613 5610 5608 5606 5603 5601 5598 5596 5593 5590 5587 5584 5581 5577 5574 5570 5567 5563 5559 5555 5551 5546 5541 5536 5532 5527 5522 5517 5512 5507 5502 5496 5491 5487
5620 5618 5616 5615 5613 5610 5609 5607 5605 5602 5600 5598 5596 5594 5591 5588 5586 5583 5580 5577 5574 5570 5567 5563 5560 5556 5552 5548 5544 5540 5535 5529 5524 5519 5514 5509 5504 5499 5494 5489 5484 5479 5474
5610 5608 5606 5604 5602 5600 5598 5596 5594 5592 5590 5588 5585 5583 5580 5578 5575 5572 5569 5566 5563 5560 5556 5553 5549 5546 5542 5538 5533 5528 5523 5518 5513 5508 5502 5497 5492 5487 5481 5476 5471 5466 5461
5598 5596 5594 5593 5591 5589 5587 5584 5582 5580 5578 5576 5574 5572 5569 5567 5564 5561 5558 5555 5553 5549 5546 5543 5539 5535 5531 5527 5522 5517 5512 5507 5501 5496 5491 5486 5480 5475 5470 5464 5459 5454 5449
5585 5583 5581 5580 5578 5576 5575 5573 5571 5569 5567 5565 5562 5560 5558 5555 5553 5550 5548 5544 5542 5539 5535 5532 5528 5524 5520 5516 5511 5506 5500 5495 5490 5485 5480 5475 5469 5464 5459 5453 5447 5442 5437